Location: El Diablo
(32.4667°N, 116.4500°W)
Time: 02:46:35
(UTC+00:00)

Cosmos 2333 Rocket - Pass Details

Date: 10 September 2024
Orbit: 840 x 862 km, 70.8° (Epoch: 06 October)

Event Time Altitude Azimuth Distance (km) Brightness Sun altitude
Rises 12:20:11 0° 334° (NNW) 3,427 5.3 -14.6°
Reaches altitude 10° 12:22:41 10° 331° (NNW) 2,484 4.5 -14.1°
Maximum altitude 12:28:17 60° 253° (WSW) 968 2.2 -13.0°
Drops below altitude 10° 12:33:49 10° 175° (S) 2,456 4.5 -11.9°
Sets 12:36:16 0° 171° (S) 3,384 5.3 -11.3°
